📊 Raw Sensor Data

Showing records 39676 to 39700 of 84,949 total

ID Distance (ft) Battery V Battery A Int Temp (°F) Int Humid (%) Ext Temp (°F) Solar V RSSI SNR Time Stamp
45286 15.6 3.86 -5 59 45 60 0.00 -67 8 07/03/2025 11:00 PM
45285 15.6 3.86 -5 59 45 60 0.00 -67 8 07/03/2025 10:45 PM
45284 15.6 3.90 -5 60 46 61 0.00 -68 8 07/03/2025 10:30 PM
45283 15.6 3.86 -5 60 47 61 0.00 -68 8 07/03/2025 10:15 PM
45282 15.6 3.85 -5 61 47 61 0.00 -66 8 07/03/2025 10:00 PM
45281 15.6 3.85 -5 62 48 62 0.00 -70 8 07/03/2025 09:45 PM
45280 15.6 3.85 -5 63 49 63 0.00 -67 8 07/03/2025 09:30 PM
45279 15.6 3.85 -5 64 50 63 0.10 -67 8 07/03/2025 09:15 PM
45278 15.6 3.85 -5 65 51 64 0.00 -68 8 07/03/2025 09:00 PM
45277 15.6 3.84 -5 67 53 66 1.30 -68 8 07/03/2025 08:45 PM
45276 15.6 3.88 -10 71 52 67 4.20 -68 8 07/03/2025 08:30 PM
45275 15.7 3.70 0 75 50 71 4.50 -70 8 07/03/2025 08:15 PM
45274 15.7 3.96 7 80 48 74 4.50 -68 7 07/03/2025 08:00 PM
45273 15.7 3.89 0 83 45 78 5.10 -68 8 07/03/2025 07:45 PM
45272 15.7 3.96 36 81 46 80 4.50 -69 8 07/03/2025 07:30 PM
45271 15.6 3.86 0 77 50 76 5.10 -69 8 07/03/2025 07:15 PM
45270 15.7 3.86 0 80 52 74 5.10 -68 7 07/03/2025 06:45 PM
45269 15.8 4.08 0 91 47 81 5.10 -68 8 07/03/2025 06:15 PM
45268 15.8 3.86 0 91 47 84 5.10 -70 7 07/03/2025 06:00 PM
45267 15.8 3.86 0 91 48 84 5.10 -69 8 07/03/2025 05:30 PM
45266 15.7 3.96 0 91 49 82 5.10 -68 7 07/03/2025 05:15 PM
45265 15.8 3.87 0 94 47 87 5.10 -69 7 07/03/2025 05:00 PM
45264 15.8 3.87 0 94 46 87 5.10 -69 8 07/03/2025 04:45 PM
45263 15.8 3.87 0 94 46 87 5.10 -67 8 07/03/2025 04:30 PM
45262 15.8 3.88 0 93 47 82 5.10 -68 7 07/03/2025 04:15 PM